Weather Roundup
Issued by NWS

Home | Current Version | Previous Version | Text Only | Print | Product List | Glossary On
Versions: 1 2 3 4 5 6 7 8 9 10 11 12 13 14 15 16 17 18 19 20 21 22 23 24 25 26 27 28 29 30 31 32 33 34 35 36 37 38 39 40 41 42 43 44 45 46 47 48 49 50
249
NZUS93 KARX 252110
HRRWXR

CURRENT HOURLY OBSERVATIONS ACROSS
MUCH OF THE UPPER MISSISSIPPI VALLEY
NATIONAL WEATHER SERVICE LA CROSSE WI
400 PM CDT THU AUG 25 2016


...SOUTHEAST MINNESOTA...


CITY           SKY/WX    TMP DP  RH WIND       PRES   REMARKS
ROCHESTER      MOSUNNY   77  61  57 W9        30.08F
ROCHESTER/MAYO FAIR      75  54  48 W15G23    30.07S
WINONA         PTSUNNY   77  59  53 W5        30.05S
AUSTIN         PTSUNNY   73  57  56 W9        30.09S
ALBERT LEA     MOSUNNY   73  57  56 W7        30.09S
DODGE CENTER   MOSUNNY   75  55  50 W10       30.08F
PRESTON        PTSUNNY   74  58  59 W12       30.09S
OWATONNA       MOSUNNY   73  55  53 W8        30.09S
FARIBAULT      MOSUNNY   73  57  56 W10       30.09S
$$

...ELSEWHERE IN MINNESOTA...


CITY           SKY/WX    TMP DP  RH WIND       PRES   REMARKS
MINNEAPOLIS    PTSUNNY   74  55  51 W14G22    30.06R
INTNL FALLS    CLOUDY    63  58  83 W16G22    29.92R
DULUTH         PTSUNNY   67  53  61 W21       29.99R
RED WING       MOSUNNY   75  54  46 W14       30.04S
REDWOOD FALLS  MOSUNNY   74  56  53 W14       30.10S
MANKATO        CLOUDY    72  55  56 NW15      30.09F
WORTHINGTON    SUNNY     71  57  61 W12       30.14S
FAIRMONT       SUNNY     74  57  55 NW15      30.11S
$$

...SOUTHWEST WISCONSIN...


CITY           SKY/WX    TMP DP  RH WIND       PRES   REMARKS
LA CROSSE      CLOUDY    80  61  52 W9        30.03F
PRAIRIE DU CHI CLOUDY    77  61  57 W6        30.07R
BOSCOBEL       CLOUDY    79  61  53 SW8       30.06S
LONE ROCK      CLOUDY    78  61  55 W12       30.06S
PLATTEVILLE    PTSUNNY   75  65  73 W9        30.08R
FORT MC COY    MOSUNNY   76  61  59 SW6       30.05S
CAMP DOUGLAS   MOSUNNY   77  63  61 W13       30.03F
MAUSTON-NEW LI CLOUDY    77  63  61 SW10      30.03F
VIROQUA        FAIR      76  61  59 W5        30.07S
WIS DELLS      CLOUDY    77  61  57 W8        30.05S
$$

...ELSEWHERE IN WISCONSIN...


CITY           SKY/WX    TMP DP  RH WIND       PRES   REMARKS
MILWAUKEE      PTSUNNY   80  62  54 E6        30.01F
MADISON        PTSUNNY   78  60  53 NW8       30.04F
GREEN BAY      SUNNY     79  62  56 W10G21    29.99S
EAU CLAIRE     PTSUNNY   76  56  49 W15       30.01S
BLACK RVR FLS  FAIR      77  57  50 W9        30.03S
MEDFORD        MOSUNNY   73  57  58 W15G28    30.01S
WAUSAU         PTSUNNY   76  56  49 W13G24    29.99F
WIS RAPIDS     CLOUDY    78  59  51 W13G22    30.03F
MARSHFIELD     MOSUNNY   77  60  55 W10       30.01F
RICE LAKE      MOSUNNY   72  55  55 W13G18    30.04R
$$

...NORTHEAST IOWA...


CITY           SKY/WX    TMP DP  RH WIND       PRES   REMARKS
WATERLOO       CLOUDY    76  58  53 W6        30.09S
DUBUQUE        CLOUDY    75  62  64 NW7       30.08S
DECORAH        PTSUNNY   75  63  64 VRB6      30.08S
MASON CITY     PTSUNNY   75  58  55 W12       30.12S
CHARLES CITY   CLOUDY    75  63  64 W7        30.10S
OELWEIN        CLOUDY    75  61  60 NW7       30.11S
$$

...ELSEWHERE IN IOWA...


CITY           SKY/WX    TMP DP  RH WIND       PRES   REMARKS
DES MOINES     CLOUDY    76  64  66 N5        30.09F
IOWA CITY      CLOUDY    78  62  57 W5        30.09R
FORT DODGE     MOSUNNY   79  61  53 W8        30.12S
MARSHALLTOWN   CLOUDY    73  63  70 W3        30.10F
CEDAR RAPIDS   PTSUNNY   74  66  76 NW6       30.08R
$$

...NORTHERN ILLINOIS...


CITY           SKY/WX    TMP DP  RH WIND       PRES   REMARKS
CHICAGO-OHARE  CLOUDY    82  63  52 W6        30.02S
CHICAGO-MIDWAY PTSUNNY   85  65  51 SW9       30.01F
MOLINE         MOSUNNY   80  65  59 NW5       30.06
ROCKFORD       CLOUDY    77  63  61 W8        30.06S
PEORIA         CLOUDY    80  73  79 SW8       30.05S
$$

NOTE: "FAIR" INDICATES FEW OR NO CLOUDS BELOW 12,000 FEET WITH NO
SIGNIFICANT WEATHER AND/OR OBSTRUCTIONS TO VISIBILITY. WIND
SPEEDS ARE IN MILES-PER-HOUR.




USA.gov is the U.S. government's official web portal to all federal, state and local government web resources and services.